TimeEDT,TemperatureF,Dew PointF,Humidity,Sea Level PressureIn,VisibilityMPH,Wind Direction,Wind SpeedMPH,Gust SpeedMPH,PrecipitationIn,Events,Conditions,WindDirDegrees,DateUTC
12:55 AM,39.0,24.1,55,30.14,10.0,East,5.8,-,N/A,,Overcast,90,2013-04-18 04:55:00
1:02 AM,39.0,24.1,55,30.12,10.0,East,5.8,-,N/A,,Overcast,100,2013-04-18 05:02:00
1:55 AM,39.9,23.0,51,30.10,10.0,ESE,8.1,-,0.00,,Overcast,110,2013-04-18 05:55:00
2:55 AM,39.9,28.0,63,30.06,10.0,ESE,8.1,-,N/A,,Overcast,110,2013-04-18 06:55:00
3:55 AM,37.9,28.9,70,30.01,10.0,East,8.1,-,N/A,,Overcast,100,2013-04-18 07:55:00
4:55 AM,37.9,28.9,70,29.94,10.0,East,8.1,-,N/A,,Overcast,90,2013-04-18 08:55:00
5:55 AM,39.0,30.0,70,29.92,10.0,ESE,8.1,-,N/A,,Overcast,120,2013-04-18 09:55:00
6:17 AM,37.9,32.0,79,29.89,10.0,East,8.1,17.3,N/A,,Overcast,100,2013-04-18 10:17:00
6:48 AM,37.9,34.0,86,29.87,6.0,East,10.4,19.6,N/A,,Overcast,100,2013-04-18 10:48:00
6:55 AM,37.0,34.0,89,29.88,4.0,East,10.4,19.6,N/A,,Overcast,90,2013-04-18 10:55:00
7:55 AM,37.0,35.1,93,29.84,5.0,East,10.4,18.4,0.01,Rain,Light Rain,100,2013-04-18 11:55:00
8:55 AM,37.0,34.0,89,29.78,4.0,East,11.5,19.6,0.04,Rain,Light Rain,100,2013-04-18 12:55:00
9:55 AM,37.9,34.0,86,29.74,8.0,ESE,8.1,18.4,0.05,Rain,Light Rain,110,2013-04-18 13:55:00
10:33 AM,37.9,35.1,89,29.73,1.8,ESE,9.2,-,0.02,Rain,Rain,110,2013-04-18 14:33:00
10:55 AM,37.9,35.1,89,29.74,1.8,Variable,5.8,-,0.06,Rain,Rain,0,2013-04-18 14:55:00
11:12 AM,37.9,36.0,93,29.71,2.5,Calm,Calm,-,0.04,Rain,Light Rain,0,2013-04-18 15:12:00
11:22 AM,37.9,36.0,93,29.72,3.0,Calm,Calm,-,0.04,Rain,Light Rain,0,2013-04-18 15:22:00
11:36 AM,37.9,36.0,93,29.72,2.5,East,4.6,-,0.06,Rain,Light Rain,100,2013-04-18 15:36:00
11:55 AM,39.0,36.0,89,29.72,2.5,East,5.8,-,0.09,Rain,Light Rain,90,2013-04-18 15:55:00
12:09 PM,39.0,36.0,89,29.69,3.0,ENE,4.6,-,0.02,Rain,Light Rain,70,2013-04-18 16:09:00
12:18 PM,39.0,36.0,89,29.67,3.0,East,6.9,-,0.03,Rain,Rain,80,2013-04-18 16:18:00
12:53 PM,39.2,37.4,93,29.64,5.0,East,6.9,-,0.06,Rain,Light Rain,90,2013-04-18 16:53:00
12:55 PM,39.0,37.0,93,29.65,5.0,East,6.9,-,0.06,Rain,Light Rain,100,2013-04-18 16:55:00
1:55 PM,39.0,37.0,93,29.61,7.0,East,9.2,-,0.02,Rain,Light Rain,90,2013-04-18 17:55:00
2:55 PM,39.9,37.0,89,29.57,6.0,ENE,6.9,-,0.04,Rain,Light Rain,70,2013-04-18 18:55:00
3:46 PM,41.0,37.9,89,29.57,1.8,ENE,3.5,-,0.01,Rain,Light Rain,60,2013-04-18 19:46:00
3:55 PM,41.0,37.9,89,29.58,1.5,ENE,4.6,-,0.02,Rain,Light Rain,70,2013-04-18 19:55:00
3:59 PM,41.0,37.9,89,29.56,2.0,East,4.6,-,0.00,Rain,Light Rain,80,2013-04-18 19:59:00
4:09 PM,41.0,39.0,93,29.54,4.0,East,5.8,-,0.01,Rain,Light Rain,90,2013-04-18 20:09:00
4:22 PM,41.0,39.0,93,29.54,6.0,Variable,5.8,-,0.01,Rain,Light Rain,0,2013-04-18 20:22:00
4:55 PM,42.1,39.0,89,29.58,10.0,Calm,Calm,-,0.01,,Overcast,0,2013-04-18 20:55:00
5:55 PM,42.1,39.0,89,29.57,9.0,Calm,Calm,-,N/A,,Overcast,0,2013-04-18 21:55:00
6:15 PM,42.1,39.0,89,29.56,1.8,Calm,Calm,-,N/A,,Overcast,0,2013-04-18 22:15:00
6:28 PM,41.0,39.0,93,29.57,0.8,WSW,3.5,-,N/A,,Overcast,240,2013-04-18 22:28:00
6:46 PM,42.1,39.0,89,29.58,1.5,Calm,Calm,-,N/A,,Overcast,0,2013-04-18 22:46:00
6:52 PM,42.8,39.2,87,29.58,1.2,Calm,Calm,-,N/A,,Overcast,0,2013-04-18 22:52:00
6:55 PM,42.1,39.9,92,29.59,1.2,Calm,Calm,-,N/A,,Overcast,0,2013-04-18 22:55:00
7:05 PM,41.0,39.0,93,29.56,0.8,NNW,4.6,-,N/A,,Overcast,330,2013-04-18 23:05:00
7:30 PM,41.0,39.0,93,29.57,1.5,NE,5.8,-,0.01,Rain,Light Rain,40,2013-04-18 23:30:00
7:37 PM,41.0,39.0,93,29.56,3.0,ENE,4.6,-,0.01,Rain,Light Rain,60,2013-04-18 23:37:00
7:51 PM,41.0,37.4,87,29.56,6.0,East,4.6,-,0.01,,Overcast,80,2013-04-18 23:51:00
7:55 PM,41.0,39.0,93,29.57,8.0,ENE,4.6,-,0.01,,Overcast,70,2013-04-18 23:55:00
8:29 PM,39.9,37.9,93,29.53,10.0,East,8.1,-,N/A,,Overcast,80,2013-04-19 00:29:00
8:55 PM,39.9,37.0,89,29.55,10.0,East,6.9,-,N/A,,Overcast,80,2013-04-19 00:55:00
9:55 PM,39.9,36.0,86,29.52,10.0,East,11.5,-,N/A,,Overcast,80,2013-04-19 01:55:00
10:41 PM,39.0,35.1,86,29.49,10.0,East,9.2,-,0.00,,Overcast,90,2013-04-19 02:41:00
10:55 PM,39.0,35.1,86,29.50,10.0,East,10.4,-,0.00,,Overcast,90,2013-04-19 02:55:00
11:11 PM,39.0,36.0,89,29.48,6.0,East,9.2,-,0.00,Rain,Light Rain,90,2013-04-19 03:11:00
11:55 PM,37.9,35.1,89,29.46,7.0,East,10.4,-,0.00,,Overcast,90,2013-04-19 03:55:00